"Time","Temp","Dewpoint","Humidity","Pressure","Direction","Speed","Gust","Precip","PrecipRate"
"00:04:56","75.1","70.4","85.2","29.94","157","1","3.6","0.00","0.00"
"00:09:58","75.1","70.5","85.6","29.94","157","0.6","2.4","0.00","0.00"
"00:14:58","75.1","70.6","86","29.94","157","0.5","3.6","0.00","0.00"
"00:19:58","75.1","70.6","85.8","29.94","157","1.1","3.6","0.00","0.00"
"00:24:59","75.1","70.6","86","29.94","157","1.3","4.8","0.00","0.00"
"00:29:56","75.1","70.6","86","29.94","157","1.4","3.6","0.00","0.00"
"00:34:56","75","70.5","86","29.94","158","1.8","6","0.00","0.00"
"00:39:58","75","70.5","86","29.94","161","1.3","4.8","0.00","0.00"
"00:44:58","75","70.5","86","29.94","161","1.7","4.8","0.00","0.00"
"00:49:59","75","70.5","86","29.94","165","1.7","4.6","0.00","0.00"
"00:54:57","74.9","70.4","86","29.94","156","1.7","4.8","0.00","0.00"
"00:59:58","74.9","70.4","86","29.94","150","0.3","3.5","0.00","0.00"
"01:04:58","74.8","70.3","86","29.94","150","1.1","4.8","0.00","0.00"
"01:09:57","74.7","70.2","86","29.94","150","1.3","4.6","0.00","0.00"
"01:14:59","74.7","70.2","86","29.94","150","0.4","2.4","0.00","0.00"
"01:19:56","74.6","70.1","86","29.93","150","0.6","3.6","0.00","0.00"
"01:24:58","74.5","70","86","29.93","150","0.7","2.4","0.00","0.00"
"01:29:57","74.4","69.9","86","29.93","150","0.4","2.4","0.00","0.00"
"01:34:57","74.4","69.9","86","29.93","150","0.6","2.4","0.00","0.00"
"01:39:56","74.4","69.9","86","29.93","150","0.8","2.4","0.00","0.00"
"01:44:58","74.4","69.9","86","29.93","150","0.2","2.4","0.00","0.00"
"01:49:59","74.4","69.9","86","29.92","150","0","0","0.00","0.00"
"01:54:56","74.4","69.9","86","29.92","150","0","0","0.00","0.00"
"01:59:56","74.3","69.9","86.4","29.92","150","0","0","0.00","0.00"
"02:04:57","74.2","70.1","87","29.92","150","0","0","0.00","0.00"
"02:09:56","74.2","70.1","87","29.92","150","0","0","0.00","0.00"
"02:14:57","74.2","70.1","87","29.92","150","0","0","0.00","0.00"
"02:19:58","74.2","70.1","87","29.92","150","0","0","0.00","0.00"
"02:24:59","74.2","70.1","87","29.92","150","0","0","0.00","0.00"
"02:29:56","74.2","70.1","87","29.93","150","0.3","2.4","0.00","0.00"
"02:34:56","74.2","70.1","87","29.93","150","0","0","0.00","0.00"
"02:39:58","74.1","70.1","87.4","29.93","150","0.1","1.2","0.00","0.00"
"02:44:59","74.1","70","87.1","29.93","150","0.1","1.2","0.00","0.00"
"02:49:59","74.1","70","87","29.93","150","0","1.2","0.00","0.00"
"02:54:56","74","70.2","87.8","29.93","150","0.2","1.2","0.00","0.00"
"02:59:57","74","70.1","87.9","29.93","150","0.1","1.2","0.00","0.00"
"03:04:58","73.9","70","87.6","29.93","150","0","0","0.00","0.00"
"03:09:57","73.8","70","88","29.93","150","0","0","0.00","0.00"
"03:14:59","73.6","69.8","88","29.93","150","0","0","0.00","0.00"
"03:19:56","73.5","69.7","88","29.93","150","0","0","0.00","0.00"
"03:24:56","73.3","69.8","88.7","29.93","150","0","0","0.00","0.00"
"03:29:57","73.2","69.8","89","29.93","150","0","0","0.00","0.00"
"03:34:58","73","69.6","89","29.93","150","0","0","0.00","0.00"
"03:39:57","72.9","69.7","89.4","29.93","150","0","0","0.00","0.00"
"03:44:58","72.8","69.7","90","29.93","150","0","0","0.00","0.00"
"03:49:56","72.8","69.7","90","29.93","150","0","0","0.00","0.00"
"03:54:58","72.7","69.6","90","29.93","150","0","0","0.00","0.00"
"03:59:57","72.5","69.4","90","29.93","150","0","0","0.00","0.00"
"04:02:36","72.4","69.3","90","29.93","150","0","0","0.00","0.00"
"04:09:56","72.2","69.1","90","29.93","150","0","0","0.00","0.00"
"04:14:57","72.1","69.1","90.4","29.93","150","0","0","0.00","0.00"
"04:19:59","72.1","69.5","91.6","29.93","150","0","0","0.00","0.00"
"04:24:59","72.1","69.6","92","29.93","150","0","0","0.00","0.00"
"04:29:59","72.1","69.6","92","29.93","150","0","0","0.00","0.00"
"04:34:59","72.1","69.6","92","29.93","150","0","0","0.00","0.00"
"04:39:57","72.1","69.6","92","29.93","150","0.1","1.2","0.00","0.00"
"04:44:57","72.2","69.7","92","29.93","150","0","1.2","0.00","0.00"
"04:49:58","72.2","69.7","92","29.92","150","0","0","0.00","0.00"
"04:54:58","72.2","69.7","92","29.92","150","0","1.2","0.00","0.00"
"04:59:59","72.3","69.8","92","29.92","150","0","1.2","0.00","0.00"
"05:04:59","72.3","69.8","92","29.92","150","0","0","0.00","0.00"
"05:09:58","72.3","69.8","92","29.92","150","0","0","0.00","0.00"
"05:14:56","72.4","69.9","92","29.93","150","0.5","2.4","0.00","0.00"
"05:19:57","72.4","69.8","91.4","29.93","150","0.3","2.4","0.00","0.00"
"05:24:57","72.4","69.6","91","29.93","150","0","1.2","0.00","0.00"
"05:29:58","72.4","69.6","91","29.93","150","0.1","1.2","0.00","0.00"
"05:34:58","72.3","69.6","91.4","29.93","150","0","0","0.00","0.00"
"05:39:57","72.1","69.6","92","29.93","150","0","0","0.00","0.00"
"05:44:57","72.1","69.6","92","29.93","150","0","0","0.00","0.00"
"05:49:58","72","69.5","92","29.93","150","0","0","0.00","0.00"
"05:54:59","71.9","69.4","92","29.93","150","0","0","0.00","0.00"
"05:59:59","71.9","69.8","92.9","29.93","150","0","0","0.00","0.00"
"06:04:59","71.9","69.5","92.1","29.93","150","0","0","0.00","0.00"
"06:09:59","72","69.6","92.4","29.93","150","0.3","2.4","0.00","0.00"
"06:14:56","72.1","69.6","92.2","29.94","150","0.3","1.2","0.00","0.00"
"06:19:56","72.1","69.6","92","29.94","150","0","0","0.00","0.00"
"06:24:56","72.1","69.6","92","29.94","150","0","0","0.00","0.00"
"06:29:57","72","69.5","92","29.94","150","0","0","0.00","0.00"
"06:34:56","72","69.5","92","29.94","150","0","0","0.00","0.00"
"06:39:58","71.9","69.4","92","29.94","150","0","0","0.00","0.00"
"06:44:58","71.9","69.4","92","29.95","150","0","0","0.00","0.00"
"06:49:58","71.8","69.3","92","29.95","150","0","0","0.00","0.00"
"06:54:58","71.7","69.3","92.1","29.95","150","0","0","0.00","0.00"
"06:59:59","71.6","69.5","93","29.95","150","0","0","0.00","0.00"
"07:04:59","71.6","69.5","93","29.95","150","0","0","0.00","0.00"
"07:09:58","71.5","69.4","93","29.95","150","0","0","0.00","0.00"
"07:14:59","71.6","69.5","93","29.95","150","0","0","0.00","0.00"
"07:19:58","71.6","69.7","93.5","29.95","150","0","0","0.00","0.00"
"07:24:57","71.7","69.9","94","29.95","150","0","1.2","0.00","0.00"
"07:29:57","71.9","69.8","93","29.96","150","0","1.2","0.00","0.00"
"07:34:56","72","69.9","93","29.96","150","0","0","0.00","0.00"
"07:39:56","72.2","70.1","93","29.96","150","0","1.2","0.00","0.00"
"07:44:58","72.3","70.2","92.9","29.97","150","0","0","0.00","0.00"
"07:49:56","72.5","70","92","29.97","150","0","1.2","0.00","0.00"
"07:54:56","72.7","70.2","92","29.97","150","0","0","0.00","0.00"
"07:59:57","72.8","70.1","91.3","29.97","150","0","1.2","0.00","0.00"
"08:04:56","73","70.1","90.9","29.97","150","0","1.2","0.00","0.00"
"08:09:59","73.1","69.9","89.7","29.97","147","0.4","2.4","0.00","0.00"
"08:14:59","73.2","69.8","89","29.97","140","0.3","2.4","0.00","0.00"
"08:19:59","73.3","69.6","88.3","29.97","111","1.3","3.6","0.00","0.00"
"08:24:58","73.3","69.5","88","29.97","111","1.2","3.6","0.00","0.00"
"08:29:57","73.3","69.5","88","29.97","117","0.8","3.6","0.00","0.00"
"08:34:57","73.4","69.6","88","29.97","124","1.3","3.5","0.00","0.00"
"08:39:57","73.5","69.7","88","29.97","123","1","3.6","0.00","0.00"
"08:44:57","73.5","69.7","88","29.97","123","0.5","2.3","0.00","0.00"
"08:49:56","73.6","69.5","87.2","29.97","123","0.4","1.2","0.00","0.00"
"08:54:59","73.6","69.5","87","29.97","123","0.2","1.2","0.00","0.00"
"08:59:59","73.7","69.6","87","29.97","123","0.4","2.4","0.00","0.00"
"09:04:59","73.8","69.7","87","29.97","123","1.5","3.6","0.00","0.00"
"09:09:58","73.9","69.8","87","29.97","116","1","2.4","0.00","0.00"
"09:14:58","74.1","69.9","86.9","29.97","9","0.8","2.4","0.00","0.00"
"09:19:57","74.2","69.7","86.2","29.97","93","0.9","4.8","0.00","0.00"
"09:24:56","74.3","69.7","85.8","29.97","105","1.4","4.8","0.00","0.00"
"09:29:56","74.4","69.6","85","29.97","104","0.2","2.4","0.00","0.00"
"09:34:59","74.5","69.7","85","29.97","21","0.6","2.4","0.00","0.00"
"09:39:59","74.6","69.4","84","29.97","112","1.4","6","0.00","0.00"
"09:44:59","74.6","69.4","83.8","29.98","125","1","3.6","0.00","0.00"
"09:49:59","74.7","69.5","84","29.98","59","0.1","1.2","0.00","0.00"
"09:54:58","74.8","69.3","83.1","29.98","75","0.7","2.4","0.00","0.00"
"09:59:58","75","69.6","83.1","29.98","88","0.9","2.4","0.00","0.00"
"10:04:57","75.1","69.5","82.7","29.98","87","0.7","3.6","0.00","0.00"
"10:09:56","75.3","69.4","82.2","29.98","87","1.1","2.4","0.00","0.00"
"10:14:56","75.4","69.5","82","29.98","87","0.6","2.4","0.00","0.00"
"10:19:56","75.6","69.5","81.6","29.97","88","1.1","3.6","0.00","0.00"
"10:24:59","75.7","69.2","80.3","29.97","122","1","4.8","0.00","0.00"
"10:29:59","75.7","69.1","79.9","29.98","136","1.2","4.8","0.00","0.00"
"10:34:58","75.8","68.9","79.3","29.98","131","1.3","4.6","0.00","0.00"
"10:39:58","75.8","68.5","78.1","29.98","82","1.1","3.6","0.00","0.00"
"10:44:58","75.8","68.5","78.2","29.98","92","0.9","3.6","0.00","0.00"
"10:49:57","76","68.6","78","29.98","94","1","3.6","0.00","0.00"
"10:54:57","76.1","68.7","78","29.98","94","0.4","2.4","0.00","0.00"
"10:59:56","76.2","68.7","77.5","29.98","112","1.9","7.2","0.00","0.00"
"11:04:56","76.3","68.9","78","29.98","108","0.8","3.6","0.00","0.00"
"11:09:59","76.4","68.8","77.3","29.98","107","1.3","3.6","0.00","0.00"
"11:14:59","76.5","68.5","76.5","29.98","119","1.5","4.8","0.00","0.00"
"11:19:58","76.5","68.3","75.8","29.98","125","1.6","3.6","0.00","0.00"
"11:24:58","76.5","68","75.2","29.98","123","2","4.8","0.00","0.00"
"11:29:57","76.4","67.8","74.8","29.98","132","1.8","4.8","0.00","0.00"
"11:34:56","76.5","68.2","75.5","29.98","130","2.1","8.4","0.00","0.00"
"11:39:56","76.7","68.3","75.3","29.98","128","1.4","3.6","0.00","0.00"
"11:44:56","76.7","68","74.5","29.98","91","1.8","3.6","0.00","0.00"
"11:49:59","76.7","68.2","74.9","29.98","106","1.3","4.8","0.00","0.00"
"11:54:58","76.8","68.7","75.9","29.98","112","0.8","3.6","0.00","0.00"
"11:59:57","76.9","68.6","75.4","29.98","112","0.8","3.6","0.00","0.00"
"12:04:57","76.9","67.9","73.8","29.98","102","1.5","4.8","0.00","0.00"
"12:09:56","77","68.5","75","29.98","132","1.8","4.8","0.00","0.00"
"12:14:56","77","69","76.5","29.98","133","0.7","3.5","0.00","0.00"
"12:19:59","77.1","69.1","76.5","29.98","133","0.4","3.6","0.00","0.00"
"12:24:58","77.3","68.8","75.3","29.98","120","0.5","3.6","0.00","0.00"
"12:29:57","77.4","67","70.5","29.98","123","1.6","3.6","0.00","0.00"
"12:34:56","77.5","66.6","69.3","29.98","158","2.3","6","0.00","0.00"
"12:39:56","77.7","67.2","70.1","29.98","146","1.7","4.8","0.00","0.00"
"12:44:56","77.9","67.1","69.4","29.98","143","1.2","3.6","0.00","0.00"
"12:49:59","78","67.2","69.3","29.98","158","2.9","7.2","0.00","0.00"
"12:54:58","78.1","67.3","69.5","29.98","149","2.1","4.8","0.00","0.00"
"12:59:58","78.1","67.6","70.3","29.98","148","1.3","2.4","0.00","0.00"
"13:04:57","78.2","67.9","70.7","29.98","146","2","7.2","0.00","0.00"
"13:09:56","78.2","68.1","71.2","29.98","140","1.8","7.2","0.00","0.00"
"13:14:56","78.2","68.1","71.3","29.98","139","2","6","0.00","0.00"
"13:19:56","78.3","68.3","71.7","29.98","137","1.5","3.6","0.00","0.00"
"13:24:59","78.3","68.6","72.3","29.98","134","1.9","4.8","0.00","0.00"
"13:29:58","78.4","68.7","72.3","29.98","104","2","4.8","0.00","0.00"
"13:34:57","78.2","68.6","72.5","29.98","125","2.4","7.2","0.00","0.00"
"13:39:57","78","68.7","73.2","29.98","117","2.3","4.8","0.00","0.00"
"13:44:56","78","68.7","73.1","29.98","136","2.3","7.2","0.00","0.00"
"13:49:56","78","68.7","73.3","29.98","132","2.5","7.2","0.00","0.00"
"13:54:56","78","69","73.8","29.98","33","2","4.8","0.00","0.00"
"13:59:56","78.1","68.9","73.6","29.98","133","2.5","4.8","0.00","0.00"
"14:04:56","78.2","69.3","74.2","29.97","36","2","4.6","0.00","0.00"
"14:09:56","78.9","70","74.2","29.97","83","2.1","3.6","0.00","0.00"
"14:14:58","79.2","70","73.5","29.97","95","1.9","7.2","0.00","0.00"
"14:19:56","79.1","70.1","74","29.97","118","2.2","6.9","0.00","0.00"
"14:24:57","79.1","70.1","74.1","29.97","126","2.2","4.8","0.00","0.00"
"14:29:58","79.2","70.1","73.8","29.97","131","2.5","7.2","0.00","0.00"
"14:34:59","78.9","70","74.2","29.97","134","1.9","6.9","0.00","0.00"
"14:39:57","79","70.4","75","29.97","102","1.9","4.8","0.00","0.00"
"14:44:58","78.8","70","74.5","29.97","135","2","4.8","0.00","0.00"
"14:49:59","78.8","70.2","75","29.96","128","1.9","4.8","0.00","0.00"
"14:54:56","79","70.1","74.2","29.96","111","2.5","7.2","0.00","0.00"
"14:59:58","79","70.3","74.9","29.96","141","1.7","4.8","0.00","0.00"
"15:04:59","79","70.4","75","29.96","158","1.9","4.8","0.00","0.00"
"15:09:59","78.9","70.3","75.1","29.96","142","1.4","3.6","0.00","0.00"
"15:14:56","78.7","70.2","75.3","29.96","119","1.8","4.8","0.00","0.00"
"15:19:56","78.7","70.3","75.5","29.95","118","2.1","4.8","0.00","0.00"
"15:24:57","78.8","70.3","75.3","29.95","96","1.7","3.6","0.00","0.00"
"15:29:57","78.7","70.1","75.2","29.96","107","2.1","4.8","0.00","0.00"
"15:34:56","78.5","70.1","75.6","29.96","110","1.4","3.6","0.00","0.00"
"15:39:57","78.4","70.2","76","29.96","89","0.9","3.6","0.00","0.00"
"15:44:57","78.5","70.3","76","29.96","100","1.9","4.8","0.00","0.00"
"15:49:57","78.4","70.2","76","29.96","109","1.6","4.6","0.00","0.00"
"15:54:56","78.4","70.3","76.2","29.96","113","1.3","3.6","0.00","0.00"
"15:59:56","78.4","70.2","76","29.96","110","1.7","3.6","0.00","0.00"
"16:04:56","78.4","70.2","76","29.96","118","2","4.8","0.00","0.00"
"16:09:59","78.5","70.4","76.3","29.96","112","1.6","3.6","0.00","0.00"
"16:14:59","78.4","70.3","76.1","29.96","112","1.9","3.6","0.00","0.00"
"16:19:59","78.4","70.2","76.1","29.96","118","2.2","4.8","0.00","0.00"
"16:24:59","78.4","70.5","76.7","29.96","133","1.9","4.8","0.00","0.00"
"16:29:59","78.5","70.5","76.5","29.96","136","2.1","4.8","0.00","0.00"
"16:34:58","78.7","70.5","76.2","29.95","133","1.9","6","0.00","0.00"
"16:39:59","78.7","70.5","76","29.95","128","3.3","8.4","0.00","0.00"
"16:44:59","78.5","70.3","76","29.95","103","2.2","6","0.00","0.00"
"16:49:59","78.4","70.4","76.5","29.95","115","1.6","6","0.00","0.00"
"16:54:59","78.4","70.2","76","29.95","118","2.3","6","0.00","0.00"
"16:59:59","78.2","70.2","76.5","29.95","139","2.3","7.2","0.00","0.00"
"17:04:58","78.1","70.3","77","29.95","125","1.5","7.2","0.00","0.00"
"17:09:57","78","70.6","78","29.95","116","1.8","6","0.00","0.00"
"17:14:58","78.1","70.7","78.2","29.95","112","1.5","3.6","0.00","0.00"
"17:19:58","78","70.6","78","29.95","111","1.5","3.6","0.00","0.00"
"17:24:57","78","70.5","77.8","29.95","101","1.7","3.5","0.00","0.00"
"17:29:56","77.8","70.4","78","29.95","72","1.8","3.6","0.00","0.00"
"17:34:56","77.7","70.8","79.5","29.95","79","1.3","3.6","0.00","0.00"
"17:39:57","77.5","70.9","80.2","29.95","129","1.9","6","0.00","0.00"
"17:44:57","77.3","70.8","80.3","29.95","142","2","6","0.00","0.00"
"17:49:57","77.2","70.5","80","29.95","144","1.3","4.8","0.00","0.00"
"17:54:56","77.2","70.5","79.9","29.95","118","1.6","4.8","0.00","0.00"
"17:59:56","77.3","70.3","79","29.95","115","1.4","3.6","0.00","0.00"
"18:04:56","77.6","70.6","78.8","29.95","115","1.7","3.6","0.00","0.00"
"18:09:59","78.3","70.9","78.2","29.95","117","1.6","4.8","0.00","0.00"
"18:14:59","78.6","70.8","77","29.95","143","1.9","4.8","0.00","0.00"
"18:19:56","78.2","70.2","76.5","29.95","157","1.7","4.6","0.00","0.00"
"18:24:56","77.9","70.1","77","29.95","157","1.6","3.6","0.00","0.00"
"18:29:59","77.6","70.1","77.9","29.95","156","1.3","3.6","0.00","0.00"
"18:34:59","77.5","70.1","78","29.95","156","1.2","3.6","0.00","0.00"
"18:39:56","77.6","70.2","78","29.95","158","1.6","4.8","0.00","0.00"
"18:44:59","77.6","70.1","77.9","29.95","148","2.1","6","0.00","0.00"
"18:49:59","77.5","70.1","78","29.95","141","2.5","5.8","0.00","0.00"
"18:54:59","77.4","70","78","29.95","133","1.4","3.6","0.00","0.00"
"18:59:58","77.4","70.4","78.9","29.95","132","1.6","4.8","0.00","0.00"
"19:04:58","77.2","70.2","79","29.95","136","2.7","8.4","0.00","0.00"
"19:09:57","76.9","70.1","79.4","29.95","136","0.9","2.4","0.00","0.00"
"19:14:58","76.7","70.1","80","29.95","136","1.1","4.8","0.00","0.00"
"19:19:57","76.5","70","80.5","29.95","136","1.6","3.6","0.00","0.00"
"19:24:57","76.3","69.9","80.8","29.95","136","1.6","4.8","0.00","0.00"
"19:29:57","76.2","69.9","81","29.95","138","1.1","3.6","0.00","0.00"
"19:34:57","76.1","69.9","81.3","29.95","138","0.6","2.4","0.00","0.00"
"19:39:58","76","70.1","82","29.95","138","1.4","4.8","0.00","0.00"
"19:44:58","75.9","70","82","29.95","138","1.2","4.8","0.00","0.00"
"19:49:58","75.8","70.1","82.5","29.95","138","0.9","4.6","0.00","0.00"
"19:54:59","75.7","70.2","83","29.95","138","1.4","3.6","0.00","0.00"
"19:59:58","75.6","70.1","83","29.96","137","1.2","4.8","0.00","0.00"
"20:04:57","75.5","70.1","83.3","29.96","136","1.2","3.5","0.00","0.00"
"20:09:56","75.4","70.2","84","29.96","135","1.7","6","0.00","0.00"
"20:14:59","75.4","70","83.3","29.96","134","0.9","4.6","0.00","0.00"
"20:19:59","75.3","69.6","82.4","29.96","80","1.1","3.6","0.00","0.00"
"20:24:59","75.3","69.4","82","29.96","35","1.3","3.6","0.00","0.00"
"20:29:56","75.2","69.3","82","29.97","99","0.9","6","0.00","0.00"
"20:34:59","75.1","69.2","82","29.97","123","1.2","5.8","0.00","0.00"
"20:39:57","75","69.1","82","29.97","93","1.4","3.6","0.00","0.00"
"20:44:57","74.9","69","82","29.97","83","0.9","3.6","0.00","0.00"
"20:49:57","74.9","69","82","29.97","92","1.4","3.6","0.00","0.00"
"20:54:57","74.8","69.2","82.7","29.97","99","1.1","3.6","0.00","0.00"
"20:59:58","74.8","69.3","83","29.97","118","1.2","3.6","0.00","0.00"
"21:04:58","74.7","69.2","83","29.96","121","0.5","3.6","0.00","0.00"
"21:09:57","74.6","69.1","83","29.96","121","0","1.2","0.00","0.00"
"21:14:58","74.5","69.1","83.3","29.97","121","0","1.2","0.00","0.00"
"21:19:58","74.4","69.2","84","29.97","121","0.2","2.4","0.00","0.00"
"21:24:58","74.4","69.2","84","29.97","121","0.3","2.4","0.00","0.00"
"21:29:58","74.3","69.5","84.9","29.97","121","0.3","2.4","0.00","0.00"
"21:34:58","74.3","69.5","85","29.97","121","0.7","2.4","0.00","0.00"
"21:39:59","74.2","69.4","85","29.97","123","0.8","2.4","0.00","0.00"
"21:44:59","74.2","69.5","85.4","29.97","123","0.7","2.4","0.00","0.00"
"21:49:59","74.2","69.7","86","29.97","122","0.3","1.2","0.00","0.00"
"21:54:59","74.2","69.7","86","29.97","122","0.1","1.2","0.00","0.00"
"21:59:59","74.2","69.7","86","29.97","122","0.3","2.4","0.00","0.00"
"22:04:59","74.2","69.7","86","29.97","122","0","1.2","0.00","0.00"
"22:09:58","74.2","69.7","86","29.97","122","0.4","3.6","0.00","0.00"
"22:14:59","74.2","69.6","85.8","29.98","122","0.7","3.6","0.00","0.00"
"22:19:56","74.2","69.5","85.4","29.98","123","0.5","3.6","0.00","0.00"
"22:24:56","74.2","69.4","85","29.98","123","0","1.2","0.00","0.00"
"22:29:56","74.2","69.6","85.6","29.98","123","0","1.2","0.00","0.00"
"22:34:56","74.2","69.7","86","29.97","123","0","0","0.00","0.00"
"22:39:57","74.2","69.7","86","29.97","123","0.1","1.2","0.00","0.00"
"22:44:57","74.1","69.7","86.3","29.97","123","0.2","2.4","0.00","0.00"
"22:49:58","74","69.9","87","29.97","123","0.3","2.4","0.00","0.00"
"22:54:58","73.9","69.8","87","29.97","123","0.1","1.2","0.00","0.00"
"22:59:58","73.9","69.8","87","29.97","123","0.8","3.6","0.00","0.00"
"23:04:59","73.9","69.8","87","29.97","123","0.6","2.4","0.00","0.00"
"23:09:57","73.8","69.7","87","29.97","123","0","0","0.00","0.00"
"23:14:58","73.7","69.6","87","29.97","123","0.3","1.2","0.00","0.00"
"23:19:58","73.7","69.6","87","29.97","123","0.1","1.2","0.00","0.00"
"23:24:58","73.7","69.6","87","29.97","123","0.6","3.6","0.00","0.00"
"23:29:58","73.6","69.5","87","29.98","123","0.4","2.4","0.00","0.00"
"23:34:58","73.5","69.4","87","29.98","123","0.5","2.4","0.00","0.00"
"23:39:59","73.4","69.6","87.9","29.98","123","1","2.4","0.00","0.00"
"23:44:59","73.3","69.5","88","29.98","123","0.5","2.4","0.00","0.00"
"23:49:59","73.3","69.5","88","29.98","123","0.6","2.4","0.00","0.00"
